[[{"header":{"parameterUnit":"m.s-1","parameterCategory":1,"la1":30.2991,"la2":30.254,"lo1":-89.0895,"lo2":-89.0444,"dy":0.0017,"dx":0.0017,"nx":28,"ny":28,"refTime":"2023-07-19T21:00:00:Z","depth":0,"parameterNumber":2,"parameterNumberName":"U-component_of_WINDS"},"data":[0,0,0,0,0,0,0,0,0,0,0,0,0,0,0,0,0,0,0,0,0,0,0,0,0,0,0,0,0,0,0,0,0,0,0,0,0,0,0,0,0,0,0,0,0,0,0,0,0,0,0,0,0,0,0,0,0,0,1.1415,1.1416,0,1.1458,1.1459,1.1459,1.1466,1.1466,1.1465,1.1465,1.1515,1.1516,1.1518,0,0,0,0,0,0,0,0,0,0,0,0,0,1.1343,1.1344,1.1415,1.1416,1.1416,1.1458,1.1459,1.146,1.1466,1.1466,1.1465,1.1465,1.1514,1.1516,1.1518,0,0,0,0,0,0,0,0,0,0,0,0,0,1.1379,1.1345,1.1415,1.1425,1.1426,1.1458,1.1459,1.146,1.1466,1.1466,1.1465,1.1465,1.1514,1.1516,1.1519,1.1546,0,0,1.1526,1.1527,0,0,0,0,0,0,0,0,1.1377,1.1382,1.1423,1.1424,1.1425,1.1456,1.1452,1.1489,1.1467,1.1451,1.1465,1.1464,1.1496,1.15,1.151,1.1549,1.1551,1.1527,1.1528,1.1529,1.153,0,0,0,0,0,0,0,1.1375,1.138,1.1432,1.1423,1.1425,1.1428,1.1433,1.1459,1.1477,1.1452,1.1453,1.1458,1.1497,1.1507,1.1511,1.1551,1.1526,1.1529,1.153,1.1531,1.1615,1.1616,0,0,0,0,0,0,1.137,1.1378,1.1431,1.1434,1.1399,1.143,1.1435,1.1447,1.1476,1.148,1.1458,1.1458,1.1503,1.1508,1.1513,1.1547,1.1529,1.1532,1.1533,1.1614,1.1615,1.1616,0,0,0,0,0,0,1.1368,1.1374,1.1429,1.1406,1.1413,1.1432,1.1445,1.1448,1.1458,1.1481,1.1484,1.1465,1.1503,1.1509,1.1537,1.1549,1.1533,1.1535,1.1614,1.1615,1.1616,1.1615,0,0,0,0,0,0,1.1366,1.1374,1.1383,1.1406,1.1414,1.1452,1.1446,1.1449,1.1462,1.1462,1.1488,1.1492,1.1503,1.1534,1.154,1.1552,1.1537,1.1613,1.1614,1.1615,1.1614,1.1616,1.1618,0,0,0,0,0,1.1363,1.1383,1.1384,1.139,1.1427,1.1453,1.1457,1.1468,1.1463,1.1474,1.1488,1.1491,1.1546,1.1536,1.1544,1.1556,1.1612,1.1614,1.1615,1.1614,1.1616,1.1618,0,0,0,0,0,0,1.1363,1.1386,1.1387,1.1414,1.1431,1.1454,1.1467,1.147,1.149,1.1489,1.1503,1.1509,1.1537,1.155,1.1538,1.1585,1.1579,1.1582,1.1575,1.1578,1.1579,1.1576,1.1539,0,0,0,0,0,1.1366,1.1383,1.1403,1.1425,1.1433,1.1449,1.146,1.1467,1.1486,1.1493,1.151,1.1529,1.1551,1.1565,1.1586,1.1616,1.1622,1.1629,1.163,1.1631,1.1634,1.1651,1.1654,1.1621,1.1621,1.1621,0,0,1.1372,1.1387,1.1398,1.1425,1.1439,1.1458,1.1455,1.1475,1.149,1.1497,1.1524,1.1537,1.156,1.1589,1.1602,1.16,1.1644,1.1633,1.1634,1.1636,1.1653,1.1656,1.1659,1.1622,1.1622,1.1622,0,0,1.1394,1.1406,1.1426,1.1439,1.1459,1.1469,1.1474,1.1496,1.1504,1.1531,1.1536,1.1555,1.1592,1.1607,1.162,1.1647,1.1651,1.1654,1.1663,1.1679,1.1681,1.1684,1.1693,1.1697,1.1656,1.1656,1.1656,0,1.14,1.1427,1.1436,1.1456,1.1468,1.1473,1.1494,1.1507,1.1534,1.1543,1.154,1.1585,1.1601,1.1634,1.164,1.165,1.1657,1.1651,1.168,1.1682,1.1685,1.1694,1.1698,1.1656,1.1656,1.1656,1.1656,0,1.1434,1.1453,1.1467,1.149,1.1504,1.1524,1.1537,1.155,1.1556,1.1566,1.1594,1.1613,1.1637,1.1646,1.1652,1.1679,1.1677,1.1677,1.1671,1.1688,1.1697,1.1701,1.1657,1.1656,1.1656,1.1656,0,0,1.1457,1.1484,1.1489,1.1499,1.1522,1.1537,1.1558,1.158,1.1592,1.161,1.1628,1.1659,1.1658,1.1673,1.1681,1.1695,1.1715,1.1693,1.1694,1.1696,1.1746,1.1747,1.175,1.1717,1.1718,1.1718,1.1744,0,1.1481,1.1516,1.1525,1.1555,1.1573,1.1578,1.1596,1.1613,1.1623,1.1641,1.1653,1.1675,1.1672,1.1681,1.1695,1.1709,1.1725,1.1707,1.1736,1.1736,1.173,1.1755,1.1756,1.1779,1.1748,1.1749,1.1749,0,1.1515,1.1531,1.1563,1.1582,1.159,1.1606,1.1627,1.1644,1.1663,1.1669,1.1685,1.1691,1.1714,1.1707,1.1739,1.1727,1.1739,1.1748,1.1749,1.1752,1.1744,1.176,1.1787,1.1791,1.1755,1.1754,1.1754,0,1.1528,1.1559,1.1582,1.1591,1.1614,1.1625,1.1635,1.1653,1.1666,1.1685,1.1694,1.1716,1.1728,1.1745,1.1758,1.1751,1.1789,1.1783,1.1796,1.1796,1.1804,1.1804,1.1835,1.1812,1.1812,1.1812,1.1812,0,1.1555,1.1574,1.1588,1.1602,1.1625,1.1634,1.1656,1.1667,1.1683,1.17,1.1707,1.1723,1.1738,1.1757,1.1767,1.1792,1.1798,1.1805,1.1807,1.1804,1.1803,1.1813,1.1811,1.1813,1.1812,1.1812,1.1812,0,1.1574,1.1584,1.1609,1.1628,1.1634,1.1649,1.1666,1.1681,1.1691,1.1713,1.1718,1.1735,1.1757,1.1771,1.18,1.1807,1.1835,1.1837,1.1828,1.1829,1.1841,1.184,1.1879,1.1885,1.1858,1.1859,1.1859,0,1.159,1.1605,1.1625,1.1636,1.1646,1.1664,1.1676,1.1686,1.1699,1.1721,1.1734,1.1756,1.1774,1.181,1.1826,1.1848,1.1851,1.1863,1.1854,1.185,1.1851,1.185,1.1851,1.1864,1.1865,1.1865,1.1865,0,1.1618,1.1622,1.1638,1.1657,1.1671,1.1686,1.1702,1.1711,1.1724,1.1739,1.1761,1.1775,1.1803,1.1826,1.1849,1.1861,1.1866,1.1867,1.1872,1.1869,1.1863,1.1866,1.1832,1.1867,1.1867,1.1866,1.1866,1.1866,1.1636,1.1649,1.1665,1.1683,1.1696,1.171,1.1724,1.1735,1.1753,1.1776,1.1781,1.1804,1.1823,1.1854,1.1867,1.1886,1.1884,1.1891,1.1892,1.1894,1.1894,1.1859,1.189,1.189,1.189,1.189,1.189,0,1.1664,1.1674,1.169,1.1711,1.1726,1.1726,1.1744,1.1756,1.1776,1.1792,1.1809,1.1834,1.1856,1.1873,1.1895,1.1907,1.191,1.1913,1.1912,1.1915,1.1894,1.1888,1.191,1.191,1.191,1.191,1.191,1.191,1.168,1.1702,1.1708,1.1736,1.1747,1.1768,1.1777,1.1791,1.1804,1.1831,1.1848,1.1858,1.1875,1.1898,1.1918,1.1922,1.193,1.1933,1.1938,1.1918,1.1916,1.1914,1.1909,1.1935,1.1935,1.1957,1.1957,1.1958]},{"header":{"parameterUnit":"m.s-1","parameterCategory":1,"la1":30.2991,"la2":30.254,"lo1":-89.0895,"lo2":-89.0444,"dy":0.0017,"dx":0.0017,"nx":28,"ny":28,"refTime":"2023-07-19T21:00:00:Z","depth":0,"parameterNumber":3,"parameterNumberName":"V-component_of_WINDS"},"data":[0,0,0,0,0,0,0,0,0,0,0,0,0,0,0,0,0,0,0,0,0,0,0,0,0,0,0,0,0,0,0,0,0,0,0,0,0,0,0,0,0,0,0,0,0,0,0,0,0,0,0,0,0,0,0,0,0,0,2.4148,2.4148,0,2.4168,2.4168,2.4168,2.4176,2.4176,2.4176,2.4176,2.4194,2.4194,2.4195,0,0,0,0,0,0,0,0,0,0,0,0,0,2.4114,2.4115,2.4148,2.4148,2.4149,2.4168,2.4168,2.4168,2.4176,2.4176,2.4176,2.4176,2.4194,2.4194,2.4195,0,0,0,0,0,0,0,0,0,0,0,0,0,2.4131,2.4115,2.4148,2.4155,2.4156,2.4168,2.4168,2.4168,2.4176,2.4176,2.4176,2.4176,2.4194,2.4194,2.4195,2.4201,0,0,2.4197,2.4198,0,0,0,0,0,0,0,0,2.413,2.4132,2.4154,2.4155,2.4155,2.417,2.4162,2.4179,2.4176,2.4168,2.4176,2.4176,2.4186,2.4187,2.4191,2.4201,2.4202,2.4197,2.4198,2.4198,2.4198,0,0,0,0,0,0,0,2.4129,2.4131,2.4156,2.4154,2.4155,2.4156,2.4158,2.4166,2.4177,2.4169,2.417,2.4172,2.4186,2.419,2.4191,2.4202,2.4197,2.4198,2.4199,2.4199,2.4216,2.4216,0,0,0,0,0,0,2.4127,2.413,2.4155,2.4156,2.4142,2.4157,2.4159,2.4165,2.4177,2.4179,2.4172,2.4172,2.4189,2.419,2.4192,2.4198,2.4198,2.4199,2.4199,2.4216,2.4216,2.4216,0,0,0,0,0,0,2.4126,2.4129,2.4154,2.4143,2.4147,2.4157,2.4164,2.4165,2.4169,2.4179,2.4181,2.4174,2.4189,2.4191,2.4198,2.4199,2.4199,2.42,2.4216,2.4216,2.4216,2.421,0,0,0,0,0,0,2.4125,2.4129,2.4132,2.4143,2.4147,2.4161,2.4164,2.4166,2.4171,2.4172,2.4182,2.4183,2.4189,2.4197,2.4199,2.42,2.4201,2.4216,2.4216,2.4216,2.4211,2.421,2.421,0,0,0,0,0,2.4124,2.4129,2.4132,2.4135,2.4152,2.4161,2.4163,2.417,2.4171,2.4174,2.4179,2.4183,2.4198,2.4198,2.42,2.4201,2.4216,2.4216,2.4216,2.4211,2.421,2.421,0,0,0,0,0,0,2.4118,2.4131,2.4134,2.4144,2.4151,2.4163,2.4166,2.417,2.4177,2.4177,2.4185,2.4187,2.4193,2.4198,2.4197,2.4206,2.4207,2.4208,2.4202,2.4202,2.4202,2.42,2.4201,0,0,0,0,0,2.4117,2.4125,2.4136,2.4144,2.4147,2.4156,2.416,2.4165,2.4173,2.4176,2.4182,2.4189,2.4195,2.4199,2.4205,2.4211,2.4213,2.4213,2.4212,2.4212,2.4212,2.4214,2.4214,2.4216,2.4216,2.4216,0,0,2.4117,2.4125,2.413,2.4143,2.4149,2.4155,2.4159,2.4166,2.417,2.4177,2.4184,2.4188,2.4196,2.4202,2.4205,2.4206,2.4212,2.4212,2.4212,2.4212,2.4214,2.4214,2.4214,2.4216,2.4216,2.4216,0,0,2.412,2.4127,2.4134,2.4139,2.4149,2.4154,2.4156,2.4166,2.4169,2.4177,2.4181,2.4186,2.4197,2.4201,2.4205,2.4207,2.421,2.4208,2.4207,2.4208,2.4208,2.4208,2.4207,2.4207,2.4209,2.4209,2.4209,0,2.4118,2.4129,2.4136,2.4143,2.4147,2.4153,2.4159,2.4164,2.4174,2.4177,2.4178,2.419,2.4196,2.4202,2.4203,2.4206,2.4207,2.4207,2.4208,2.4208,2.4207,2.4207,2.4207,2.4208,2.4208,2.4208,2.4208,0,2.4125,2.4132,2.4136,2.4146,2.4151,2.4157,2.4164,2.4168,2.4171,2.4176,2.4182,2.4189,2.4196,2.4198,2.4201,2.4204,2.4204,2.4206,2.4208,2.4207,2.4206,2.4206,2.4208,2.4208,2.4208,2.4208,0,0,2.4126,2.4139,2.414,2.4143,2.4153,2.4158,2.4163,2.417,2.4173,2.4179,2.4183,2.4191,2.4192,2.4196,2.42,2.4202,2.4201,2.4204,2.4204,2.4202,2.4202,2.42,2.42,2.4203,2.4203,2.4203,2.4202,0,2.4129,2.4139,2.4145,2.4153,2.4158,2.4163,2.4167,2.4172,2.4177,2.4181,2.4185,2.419,2.4192,2.4195,2.4196,2.4201,2.4201,2.4201,2.4205,2.4205,2.4203,2.42,2.4199,2.4197,2.4202,2.4202,2.4202,0,2.4135,2.4141,2.4149,2.4156,2.4158,2.4162,2.4168,2.4172,2.4178,2.418,2.4184,2.4188,2.4192,2.4193,2.4198,2.4197,2.4199,2.4201,2.4201,2.4202,2.4203,2.42,2.4197,2.4196,2.4202,2.4202,2.4202,0,2.4133,2.4143,2.4148,2.4152,2.416,2.4163,2.4166,2.4172,2.4175,2.418,2.4181,2.4186,2.4189,2.4192,2.4196,2.4197,2.4199,2.4202,2.4201,2.4201,2.4201,2.4201,2.4198,2.4203,2.4203,2.4203,2.4203,0,2.4135,2.414,2.4147,2.4151,2.4155,2.4161,2.4164,2.4168,2.4173,2.4176,2.418,2.4183,2.4189,2.4191,2.4195,2.4197,2.4198,2.42,2.42,2.4199,2.4199,2.42,2.42,2.4203,2.4203,2.4203,2.4203,0,2.4134,2.414,2.4146,2.4153,2.4155,2.4158,2.4163,2.4166,2.417,2.4173,2.4175,2.418,2.4184,2.4188,2.4193,2.4195,2.4197,2.4198,2.4195,2.4195,2.4194,2.4194,2.4191,2.4191,2.4197,2.4197,2.4197,0,2.4135,2.4139,2.4146,2.4148,2.4152,2.4156,2.4159,2.4164,2.4167,2.4172,2.4174,2.4177,2.4181,2.4186,2.4189,2.4193,2.4194,2.4193,2.4194,2.4192,2.4193,2.4192,2.4192,2.4192,2.4192,2.4192,2.4192,0,2.4136,2.4138,2.4143,2.4148,2.4151,2.4155,2.4159,2.416,2.4166,2.4169,2.4172,2.4175,2.4179,2.4182,2.4186,2.4188,2.419,2.4191,2.4191,2.419,2.4187,2.4188,2.4193,2.4191,2.4191,2.4192,2.4192,2.4192,2.4136,2.4138,2.4143,2.4147,2.4151,2.4154,2.4156,2.416,2.4163,2.4167,2.417,2.4173,2.4176,2.4181,2.4183,2.4185,2.4186,2.4186,2.4186,2.4186,2.4185,2.4187,2.4186,2.4186,2.4186,2.4186,2.4186,0,2.4136,2.4139,2.4143,2.4148,2.4151,2.4153,2.4157,2.4159,2.4162,2.4165,2.4168,2.4171,2.4173,2.4177,2.4179,2.418,2.4181,2.418,2.418,2.418,2.4184,2.4184,2.4179,2.4179,2.4179,2.4179,2.4179,2.4179,2.4137,2.414,2.4142,2.4147,2.415,2.4153,2.4155,2.4157,2.416,2.4163,2.4165,2.4168,2.417,2.4173,2.4175,2.4176,2.4176,2.4175,2.4176,2.418,2.418,2.4181,2.418,2.4175,2.4175,2.4172,2.4172,2.4172]}]]